SPACEBEE-21 (46300 NORAD) Tracking and Keplerian Element Data

This shows tracking and keplerian element data for the satellite.

Feedback or suggestion? Click here.




ElementValue
Catalog46300
NameSPACEBEE-21
Epoch Orbit1254
Epoch Day330.86499613
Epoch Year2020
RAAN42.4939
Inclination97.5126
Eccentricity0.000163
Argument of Perigee70.5063
Mean Anonmoly289.6343
Mean Motion15.10950273
Decay Rate3.732E-05
L11 46300U 20061AE 20330.86499613 .00003732 00000-0 22760-3 0 9991
L22 46300 97.5126 42.4939 0001630 70.5063 289.6343 15.10950273 12547

Live tracking and technical data element details for SPACEBEE-21 (NORAD 46300). SPACEBEE-21 can be tracked NOW for your location showing map with azimuth and elevation plus other details from your city location.

Track the satellite on the map from your city or location and see movement details for azimuth, elevation, latitude, longitude, range, height, and movement on the map or in text.







IsCatalogInMostPopularTable: catalog: 46300, numindb: 16
Update: records affected: 1



GetName: 46300 SPACEBEE-21

Hit Count: updated at: Thu, 26 Nov 2020 23:57:55 GMT